DW9040 Weather Reports


Display with metric or nautical units.
time (UTC)temp
F
wind
direction
speed
MPH
gust
MPH
rain 1hr
in
rain 24hr
in
rain mn
in
humidity
%
barometer
mb
20190618233500 77 169 0.0 2.0 0.00 0.17 0.00 86 1012.8
20190618231954 78 157 1.0 3.0 0.00 0.17 0.00 84 1012.7
20190618230458 78 65 0.0 0.0 0.00 0.17 0.00 84 1012.1
20190618224954 78 105 0.0 2.0 0.00 0.17 0.00 82 1012.3
20190618223458 78 207 0.0 9.0 0.00 0.17 0.00 81 1012.1
20190618221954 79 234 6.0 9.0 0.00 0.17 0.00 79 1011.8
20190618220453 78 193 3.0 7.0 0.00 0.17 0.00 78 1011.4
20190618214952 80 234 5.0 9.0 0.00 0.17 0.00 77 1011.9
20190618213456 82 231 1.0 13.0 0.00 0.17 0.00 75 1011.7
20190618211951 84 182 0.0 2.0 0.00 0.17 0.00 76 1011.6
20190618210457 82 196 0.0 2.0 0.00 0.17 0.00 76 1011.5
20190618204948 82 188 1.0 6.0 0.00 0.17 0.00 76 1011.8
20190618203448 82 188 2.0 8.0 0.00 0.17 0.00 73 1011.8
20190618201945 83 218 6.0 15.0 0.00 0.17 0.00 71 1012.0
20190618200447 86 176 1.0 7.0 0.00 0.17 0.00 67 1012.0
20190618194945 88 239 0.0 4.0 0.00 0.17 0.00 68 1012.2
20190618193448 87 207 0.0 0.0 0.00 0.17 0.00 65 1012.4
20190618191946 86 195 0.0 5.0 0.00 0.17 0.00 67 1012.4
20190618190446 86 108 0.0 0.0 0.00 0.17 0.00 67 1012.6
20190618184939 85 200 0.0 3.0 0.00 0.17 0.00 69 1013.0
20190618183505 85 178 0.0 1.0 0.00 0.17 0.00 68 1013.0
20190618181957 85 235 0.0 2.0 0.00 0.17 0.00 70 1013.2
20190618180500 85 230 0.0 4.0 0.00 0.17 0.00 68 1013.3
20190618174939 85 282 0.0 1.0 0.00 0.17 0.00 67 1013.7
20190618173502 86 40 2.0 4.0 0.00 0.17 0.00 65 1013.8
20190618171954 85 215 1.0 3.0 0.00 0.17 0.00 66 1013.9
20190618170453 85 288 0.0 1.0 0.00 0.17 0.00 69 1014.0
20190618164953 84 330 0.0 3.0 0.00 0.17 0.00 72 1014.2
20190618163456 83 227 0.0 2.0 0.00 0.17 0.00 77 1014.3
20190618161952 82 217 0.0 3.0 0.00 0.17 0.00 78 1014.3
20190618160458 82 236 0.0 4.0 0.00 0.17 0.00 77 1014.3
20190618154954 81 139 1.0 3.0 0.00 0.17 0.00 82 1014.3
20190618153454 80 223 2.0 5.0 0.00 0.17 0.00 82 1014.3
20190618151947 79 211 0.0 2.0 0.00 0.17 0.00 86 1014.3
20190618150447 78 211 0.0 2.0 0.00 0.17 0.00 87 1014.3
20190618144944 78 211 2.0 4.0 0.00 0.17 0.00 87 1014.3
20190618143448 78 207 2.0 5.0 0.00 0.17 0.00 89 1014.2
20190618141944 77 248 0.0 0.0 0.00 0.17 0.00 89 1014.2
20190618140447 77 248 0.0 0.0 0.00 0.17 0.00 90 1013.9
20190618134958 76 230 0.0 0.0 0.00 0.17 0.00 92 1014.0
20190618133502 75 229 0.0 0.0 0.00 0.17 0.00 93 1013.9
20190618131952 74 232 0.0 0.0 0.00 0.17 0.00 95 1014.1
20190618130450 73 232 0.0 1.0 0.00 0.17 0.00 95 1014.0
20190618124950 72 306 0.0 0.0 0.00 0.17 0.00 95 1014.0
20190618123450 72 216 0.0 1.0 0.00 0.17 0.00 96 1014.1
20190618121944 72 215 0.0 1.0 0.00 0.17 0.00 97 1014.0
20190618120447 72 215 0.0 1.0 0.00 0.17 0.00 97 1013.8
20190618114942 71 215 0.0 1.0 0.00 0.17 0.00 98 1013.6
20190618113503 71 215 0.0 0.0 0.00 0.17 0.00 98 1013.5
20190618111939 70 215 0.0 0.0 0.00 0.17 0.00 98 1013.7
20190618110444 70 215 0.0 0.0 0.00 0.17 0.00 98 1013.4
20190618105000 69 215 0.0 3.0 0.00 0.17 0.00 98 1013.7
20190618103459 69 211 0.0 3.0 0.00 0.17 0.00 98 1013.7
20190618101939 69 225 0.0 2.0 0.00 0.17 0.00 98 1013.7
20190618100502 69 225 0.0 1.0 0.00 0.17 0.00 98 1013.6
20190618094956 69 248 1.0 3.0 0.00 0.17 0.00 98 1013.6
20190618093500 69 254 0.0 1.0 0.00 0.17 0.00 98 1013.5
20190618091957 69 284 0.0 0.0 0.00 0.17 0.00 98 1013.6
20190618090457 69 284 0.0 0.0 0.00 0.17 0.00 97 1013.6
20190618084952 69 284 0.0 0.0 0.00 0.17 0.00 97 1013.8
20190618083456 69 284 0.0 0.0 0.00 0.17 0.00 97 1013.7
20190618081951 69 287 0.0 0.0 0.00 0.17 0.00 97 1013.6
20190618080452 69 287 0.0 0.0 0.00 0.17 0.00 97 1013.5
20190618074958 69 287 0.0 0.0 0.00 0.17 0.00 97 1013.7
20190618073452 69 287 0.0 0.0 0.00 0.17 0.00 97 1013.8
20190618071947 69 287 0.0 0.0 0.00 0.17 0.00 97 1013.7
20190618070444 69 287 0.0 0.0 0.00 0.17 0.00 97 1014.0
20190618064944 70 287 0.0 0.0 0.00 0.17 0.00 97 1014.3
20190618063523 70 287 0.0 0.0 0.00 0.17 0.00 97 1014.5
20190618061951 70 286 0.0 0.0 0.00 0.17 0.00 97 1014.6
20190618060451 70 286 0.0 0.0 0.00 0.17 0.00 97 1014.9
20190618054947 70 286 0.0 0.0 0.00 0.17 0.00 97 1015.0
20190618053443 71 286 0.0 0.0 0.00 0.17 0.00 97 1015.2
20190618051959 71 286 0.0 0.0 0.00 0.17 0.00 97 1015.2
20190618050446 71 286 0.0 0.0 0.00 0.17 0.00 97 1015.3
20190618044944 71 286 0.0 0.0 0.00 0.17 0.00 97 1015.3
20190618043443 71 286 0.0 0.0 0.00 0.17 0.00 96 1015.4
20190618042000 71 286 0.0 0.0 0.00 0.17 0.00 96 1015.4
20190618040458 72 286 0.0 0.0 0.00 0.17 0.00 96 1015.3
20190618034953 72 286 0.0 0.0 0.00 0.17 0.17 96 1015.5
20190618033458 73 286 0.0 0.0 0.00 0.17 0.17 96 1015.6
20190618031952 73 286 0.0 0.0 0.01 0.17 0.17 96 1015.6
20190618030453 73 286 0.0 0.0 0.01 0.17 0.17 96 1015.8
20190618024948 73 286 0.0 0.0 0.02 0.17 0.17 96 1015.7
20190618023452 74 286 0.0 0.0 0.14 0.17 0.17 96 1015.7
20190618021946 74 286 0.0 1.0 0.13 0.16 0.16 96 1015.5
20190618020446 74 173 0.0 4.0 0.15 0.16 0.16 95 1015.3
20190618014947 75 60 3.0 10.0 0.13 0.13 0.13 95 1015.4
20190618013446 75 77 0.0 2.0 0.03 0.03 0.03 94 1015.1
20190618011943 76 74 0.0 3.0 0.03 0.03 0.03 93 1014.9
20190618010445 77 63 0.0 1.0 0.01 0.01 0.01 91 1015.0
20190618004942 78 56 0.0 5.0 0.00 0.00 0.00 90 1015.0
20190618003441 78 57 2.0 4.0 0.00 0.00 0.00 89 1015.1
20190618001941 78 198 0.0 0.0 0.00 0.00 0.00 85 1015.0
20190618000444 78 198 0.0 0.0 0.00 0.00 0.00 86 1014.9
20190617234959 79 198 0.0 3.0 0.00 0.00 0.00 84 1014.4